{"data":{"norad_id":66853,"epoch":"2026-09-20T04:30:06.485184Z","epoch_age_seconds":111469,"freshness":"FRESH","line1":"1 66853U 25281F   26263.18757506  .00008992  00000+0  33584-3 0  9997","line2":"2 66853  43.0005 324.8644 0001525 263.5154  96.5524 15.27584761 45930","mean_motion":15.27584761,"eccentricity":0.0001525,"inclination_deg":43.0005,"raan_deg":324.8644,"arg_perigee_deg":263.5154,"mean_anomaly_deg":96.5524,"bstar":0.00033584,"rev_number":4593,"period_min":94.266454913921,"perigee_km":481.98851122433,"apogee_km":484.08116863551,"semimajor_km":6861.1718399299,"source":"CELESTRAK","updated_at":"2026-09-21T09:00:36.026513Z"}}